Total_Precipitation_Accumulation
0.68 0.80 0.79 0.68 0.66 0.64 0.72 0.87 0.99 0.89 0.84 0.91 0.98 1.05 1.20 1.26 1.29 1.16 1.00 0.96 0.84 0.72 0.64 0.61 0.61 0.65 0.70 0.74 0.78 0.85 0.91 0.95 1.04 1.23 1.49 1.75 1.99 2.23
0.84 0.90 0.91 0.83 0.81 0.78 0.79 0.89 1.07 1.09 1.01 0.95 1.01 1.01 1.01 0.89 0.94 0.89 0.87 0.88 0.77 0.69 0.64 0.60 0.56 0.56 0.57 0.62 0.65 0.64 0.66 0.66 0.67 0.72 0.80 0.92 1.09 1.36
0.87 0.89 0.90 0.96 1.02 1.02 1.06 1.07 1.12 1.27 1.22 1.02 1.07 1.16 1.09 0.91 0.82 0.80 0.77 0.74 0.69 0.70 0.67 0.64 0.61 0.57 0.54 0.52 0.55 0.58 0.58 0.58 0.58 0.56 0.56 0.59 0.59 0.63
0.93 1.02 0.99 1.00 1.09 1.14 1.26 1.25 1.27 1.45 1.45 1.28 1.25 1.32 1.24 1.10 0.97 0.86 0.71 0.65 0.64 0.72 0.71 0.67 0.62 0.57 0.54 0.52 0.50 0.49 0.50 0.49 0.50 0.49 0.48 0.46 0.47 0.47
1.10 1.15 1.14 1.23 1.22 1.25 1.31 1.29 1.34 1.50 1.60 1.51 1.47 1.56 1.56 1.32 1.14 0.95 0.83 0.82 0.71 0.72 0.74 0.71 0.67 0.62 0.57 0.57 0.57 0.53 0.48 0.46 0.43 0.44 0.46 0.45 0.44 0.44
1.22 1.24 1.25 1.33 1.40 1.45 1.47 1.55 1.63 1.75 1.85 1.79 1.77 1.87 1.87 1.71 1.49 1.19 1.10 1.02 0.89 0.75 0.78 0.76 0.72 0.67 0.60 0.55 0.53 0.53 0.52 0.50 0.47 0.43 0.42 0.41 0.42 0.40
1.17 1.23 1.22 1.26 1.33 1.44 1.47 1.61 1.79 1.96 2.11 2.16 2.16 2.31 2.23 2.03 1.76 1.41 1.29 1.18 1.04 0.89 0.81 0.71 0.66 0.60 0.57 0.55 0.53 0.52 0.50 0.49 0.48 0.47 0.44 0.40 0.38 0.37
1.27 1.31 1.27 1.21 1.18 1.24 1.34 1.46 1.61 1.79 2.03 2.24 2.34 2.41 2.43 2.26 2.03 1.74 1.39 1.12 0.99 0.89 0.87 0.79 0.69 0.64 0.57 0.52 0.58 0.55 0.52 0.49 0.48 0.47 0.46 0.44 0.41 0.36
1.25 1.28 1.17 1.06 1.10 1.06 1.14 1.20 1.24 1.35 1.49 1.71 1.93 2.00 2.15 2.20 2.05 1.73 1.43 1.18 0.99 0.92 0.91 0.83 0.77 0.72 0.65 0.63 0.69 0.59 0.53 0.51 0.48 0.46 0.47 0.47 0.48 0.46
1.11 1.15 1.15 1.06 1.04 1.07 1.08 1.04 0.97 0.98 1.04 1.09 1.23 1.46 1.67 1.89 1.94 1.81 1.69 1.43 1.15 0.95 0.89 0.84 0.74 0.69 0.66 0.63 0.68 0.62 0.57 0.53 0.51 0.49 0.47 0.46 0.45 0.45
1.15 1.15 1.16 1.08 1.10 1.00 0.98 0.97 0.92 0.88 0.88 0.93 1.01 1.18 1.40 1.57 1.75 1.74 1.64 1.51 1.28 1.02 0.88 0.83 0.73 0.67 0.63 0.56 0.56 0.57 0.54 0.54 0.53 0.51 0.49 0.47 0.45 0.44
1.14 1.14 1.13 1.04 1.07 0.99 1.00 1.04 0.97 0.89 0.88 0.86 0.89 0.97 1.04 1.27 1.50 1.51 1.44 1.40 1.28 1.07 0.85 0.79 0.72 0.69 0.70 0.55 0.44 0.44 0.45 0.50 0.54 0.52 0.50 0.48 0.46 0.39
1.05 1.03 1.07 1.04 0.92 0.84 0.81 0.86 0.89 0.89 0.91 0.90 0.88 0.92 0.99 1.08 1.25 1.34 1.35 1.27 1.17 1.00 0.82 0.78 0.75 0.69 0.63 0.54 0.44 0.40 0.37 0.36 0.38 0.42 0.47 0.50 0.48 0.38
1.03 1.03 1.07 1.03 0.89 0.79 0.69 0.69 0.71 0.68 0.75 0.83 0.85 0.85 0.88 0.93 1.07 1.28 1.40 1.34 1.15 1.00 0.91 0.85 0.76 0.69 0.60 0.47 0.40 0.36 0.36 0.35 0.32 0.31 0.36 0.50 0.54 0.53
0.95 1.12 1.11 0.99 0.91 0.85 0.78 0.69 0.63 0.59 0.65 0.73 0.71 0.72 0.73 0.79 0.93 1.21 1.43 1.56 1.42 1.14 1.00 0.92 0.84 0.77 0.69 0.53 0.38 0.31 0.32 0.33 0.32 0.31 0.32 0.38 0.45 0.51
0.97 1.11 1.17 1.14 1.07 0.98 0.87 0.70 0.56 0.55 0.58 0.63 0.68 0.70 0.77 0.85 0.94 1.00 1.22 1.41 1.46 1.29 1.07 0.98 0.91 0.90 0.80 0.62 0.48 0.35 0.30 0.30 0.31 0.33 0.37 0.38 0.42 0.50
1.09 1.23 1.36 1.37 1.34 1.23 1.06 0.89 0.76 0.72 0.68 0.68 0.77 0.80 0.82 0.84 0.85 0.87 1.02 1.16 1.17 1.10 1.03 1.02 1.02 1.01 0.99 0.88 0.66 0.44 0.36 0.30 0.29 0.37 0.45 0.45 0.44 0.48
0.90 1.11 1.37 1.45 1.46 1.42 1.31 1.13 0.98 0.90 0.85 0.82 0.84 0.85 0.84 0.87 0.89 0.93 1.00 1.10 1.10 1.00 0.97 0.95 1.04 1.12 1.07 0.97 0.76 0.58 0.45 0.37 0.34 0.41 0.48 0.50 0.46 0.47
0.61 0.83 1.12 1.33 1.42 1.45 1.37 1.20 1.03 0.98 1.00 0.94 0.90 0.88 0.87 0.87 0.93 0.97 0.99 1.04 1.07 1.01 0.93 0.94 1.01 1.07 1.01 0.80 0.65 0.58 0.56 0.50 0.50 0.48 0.48 0.50 0.46 0.42
0.47 0.63 0.89 1.16 1.26 1.32 1.31 1.25 1.14 1.09 1.08 1.03 0.98 0.95 0.93 0.93 0.91 0.93 0.95 0.97 1.00 1.04 0.96 0.91 0.93 0.92 0.89 0.80 0.71 0.62 0.57 0.62 0.65 0.60 0.52 0.54 0.55 0.55
0.58 0.64 0.80 1.02 1.18 1.28 1.29 1.27 1.21 1.18 1.17 1.16 1.11 1.06 1.02 1.03 0.97 0.90 0.93 1.00 1.03 1.07 0.97 0.78 0.76 0.88 1.03 1.12 0.98 0.71 0.60 0.61 0.71 0.75 0.69 0.69 0.67 0.68
0.74 0.75 0.82 0.97 1.13 1.26 1.29 1.26 1.28 1.26 1.26 1.22 1.18 1.13 1.06 1.06 1.06 1.03 1.03 1.06 1.01 0.97 0.96 0.90 0.94 1.05 1.09 1.05 0.90 0.80 0.72 0.69 0.77 0.81 0.76 0.70 0.68 0.61
0.89 0.85 0.88 0.99 1.09 1.20 1.21 1.19 1.20 1.25 1.24 1.21 1.17 1.16 1.11 1.07 1.08 1.09 1.07 1.10 1.08 1.06 1.12 1.16 1.14 1.10 1.03 1.00 0.95 0.90 0.87 0.81 0.82 0.80 0.70 0.66 0.56 0.50